• In Hungary
  • List of Countries
  • For 7 days
  • Water Temperature
  • Satellite Maps
  • Weather Map
  • News
  • Weather Widgets
  • user-avatar
    Login

    Hourly Weather Rogozki

    Today, 21 September, Friday

    Time Temperature Precipitation Wind Pressure Humidity
    00:00 +21°C° 0 mm 3 mps 751 mmHg 62%
    01:00 +21°C° 0 mm 3 mps 751 mmHg 63%
    02:00 +20°C° 0 mm 3 mps 751 mmHg 64%
    03:00 +20°C° 0 mm 3 mps 751 mmHg 66%
    04:00 +19°C° 0 mm 3 mps 750 mmHg 67%
    05:00 +20°C° 0 mm 4 mps 750 mmHg 67%
    06:00 +20°C° 0 mm 4 mps 750 mmHg 67%
    07:00 +20°C° 0 mm 4 mps 750 mmHg 67%
    08:00 +22°C° 0 mm 5 mps 750 mmHg 61%
    09:00 +25°C° 0 mm 5 mps 750 mmHg 55%
    10:00 +27°C° 0 mm 6 mps 749 mmHg 49%
    11:00 +28°C° 0 mm 6 mps 749 mmHg 46%
    12:00 +28°C° 0 mm 6 mps 748 mmHg 42%
    13:00 +29°C° 0 mm 6 mps 747 mmHg 39%
    14:00 +29°C° 0 mm 6 mps 747 mmHg 39%
    15:00 +29°C° 0 mm 6 mps 746 mmHg 40%
    16:00 +28°C° 0 mm 6 mps 745 mmHg 40%
    17:00 +27°C° 0 mm 6 mps 745 mmHg 43%
    18:00 +26°C° 0 mm 6 mps 745 mmHg 46%
    19:00 +23°C° 0 mm 6 mps 745 mmHg 49%
    20:00 +22°C° 0.3 mm 6 mps 745 mmHg 56%
    21:00 +21°C° 0.3 mm 7 mps 746 mmHg 63%
    22:00 +20°C° 0.3 mm 7 mps 746 mmHg 70%
    23:00 +17°C° 0.7 mm 7 mps 747 mmHg 72%

    Tomorrow, 22 September, Saturday

    Time Temperature Precipitation Wind Pressure Humidity
    00:00 +15°C° 0.7 mm 6 mps 748 mmHg 74%
    01:00 +13°C° 0.7 mm 6 mps 748 mmHg 76%
    02:00 +13°C° 0.2 mm 5 mps 749 mmHg 75%
    03:00 +13°C° 0.2 mm 5 mps 750 mmHg 75%
    04:00 +13°C° 0.2 mm 4 mps 751 mmHg 74%
    05:00 +13°C° 0 mm 4 mps 751 mmHg 71%
    06:00 +13°C° 0 mm 5 mps 751 mmHg 68%
    07:00 +12°C° 0 mm 5 mps 751 mmHg 65%
    08:00 +13°C° 0 mm 6 mps 751 mmHg 60%
    09:00 +14°C° 0 mm 7 mps 751 mmHg 56%
    10:00 +15°C° 0 mm 8 mps 751 mmHg 51%
    11:00 +15°C° 0 mm 7 mps 751 mmHg 51%
    12:00 +16°C° 0 mm 7 mps 751 mmHg 50%
    13:00 +16°C° 0 mm 7 mps 751 mmHg 50%
    14:00 +16°C° 0.1 mm 7 mps 751 mmHg 49%
    15:00 +16°C° 0.1 mm 6 mps 751 mmHg 49%
    16:00 +16°C° 0.1 mm 6 mps 751 mmHg 48%
    17:00 +15°C° 0.1 mm 5 mps 751 mmHg 53%
    18:00 +14°C° 0.1 mm 5 mps 752 mmHg 57%
    19:00 +13°C° 0.1 mm 4 mps 752 mmHg 62%
    20:00 +12°C° 0 mm 4 mps 752 mmHg 64%
    21:00 +12°C° 0 mm 4 mps 752 mmHg 66%
    22:00 +12°C° 0 mm 5 mps 752 mmHg 69%
    23:00 +10°C° 0 mm 5 mps 752 mmHg 69%

    Day after tomorrow, 23 September, Sunday

    Time Temperature Precipitation Wind Pressure Humidity
    00:00 +10°C° 0 mm 5 mps 752 mmHg 69%
    01:00 +10°C° 0 mm 5 mps 752 mmHg 70%
    02:00 +9°C° 0 mm 5 mps 752 mmHg 70%
    03:00 +9°C° 0 mm 5 mps 753 mmHg 71%
    04:00 +8°C° 0 mm 5 mps 753 mmHg 72%
    05:00 +9°C° 0 mm 5 mps 753 mmHg 71%
    06:00 +9°C° 0 mm 6 mps 753 mmHg 70%
    07:00 +9°C° 0 mm 6 mps 753 mmHg 70%
    08:00 +10°C° 0 mm 6 mps 753 mmHg 65%
    09:00 +11°C° 0 mm 6 mps 753 mmHg 60%
    10:00 +14°C° 0 mm 6 mps 754 mmHg 55%
    11:00 +14°C° 0 mm 6 mps 753 mmHg 50%
    12:00 +15°C° 0 mm 6 mps 753 mmHg 46%
    13:00 +16°C° 0 mm 6 mps 753 mmHg 42%
    14:00 +16°C° 0 mm 6 mps 752 mmHg 43%
    15:00 +16°C° 0 mm 5 mps 752 mmHg 43%
    16:00 +17°C° 0 mm 4 mps 751 mmHg 44%
    17:00 +15°C° 0.1 mm 4 mps 751 mmHg 51%
    18:00 +14°C° 0.1 mm 3 mps 750 mmHg 58%
    19:00 +14°C° 0.1 mm 2 mps 749 mmHg 66%
    20:00 +12°C° 0.5 mm 3 mps 748 mmHg 70%
    21:00 +12°C° 0.5 mm 3 mps 747 mmHg 75%
    22:00 +12°C° 0.5 mm 4 mps 746 mmHg 80%
    23:00 +12°C° 1.8 mm 4 mps 745 mmHg 83%

    24 September, Monday

    Time Temperature Precipitation Wind Pressure Humidity
    00:00 +12°C° 1.8 mm 5 mps 743 mmHg 86%
    01:00 +13°C° 1.8 mm 5 mps 741 mmHg 89%
    02:00 +13°C° 6.3 mm 6 mps 739 mmHg 89%
    03:00 +14°C° 6.3 mm 6 mps 737 mmHg 89%
    04:00 +15°C° 6.3 mm 7 mps 735 mmHg 89%
    05:00 +16°C° 1.9 mm 8 mps 734 mmHg 87%
    06:00 +16°C° 1.9 mm 9 mps 732 mmHg 85%
    07:00 +17°C° 1.9 mm 10 mps 731 mmHg 83%
    08:00 +17°C° 0.4 mm 10 mps 731 mmHg 80%
    09:00 +16°C° 0.4 mm 10 mps 731 mmHg 78%
    10:00 +16°C° 0.4 mm 10 mps 731 mmHg 75%
    11:00 +13°C° 0.8 mm 11 mps 733 mmHg 77%
    12:00 +10°C° 0.8 mm 13 mps 735 mmHg 78%
    13:00 +8°C° 0.8 mm 14 mps 737 mmHg 80%
    14:00 +8°C° 0.4 mm 14 mps 740 mmHg 79%
    15:00 +8°C° 0.4 mm 13 mps 742 mmHg 78%
    16:00 +9°C° 0.4 mm 12 mps 745 mmHg 77%
    17:00 +8°C° 0.3 mm 12 mps 747 mmHg 75%
    18:00 +8°C° 0.3 mm 12 mps 748 mmHg 72%
    19:00 +7°C° 0.3 mm 11 mps 750 mmHg 70%
    20:00 +7°C° 0 mm 10 mps 751 mmHg 68%
    21:00 +6°C° 0 mm 9 mps 752 mmHg 67%
    22:00 +6°C° 0 mm 8 mps 753 mmHg 65%
    23:00 +6°C° 0 mm 8 mps 754 mmHg 65%

    25 September, Tuesday

    Time Temperature Precipitation Wind Pressure Humidity
    00:00 +5°C° 0 mm 8 mps 755 mmHg 66%
    01:00 +5°C° 0 mm 7 mps 756 mmHg 66%
    02:00 +5°C° 0 mm 7 mps 756 mmHg 65%
    03:00 +5°C° 0 mm 7 mps 757 mmHg 65%
    04:00 +5°C° 0 mm 7 mps 758 mmHg 64%
    05:00 +5°C° 0 mm 7 mps 759 mmHg 63%
    06:00 +5°C° 0 mm 7 mps 759 mmHg 62%
    07:00 +6°C° 0 mm 7 mps 760 mmHg 60%
    08:00 +8°C° 0 mm 7 mps 760 mmHg 56%
    09:00 +9°C° 0 mm 8 mps 760 mmHg 51%
    10:00 +11°C° 0 mm 8 mps 761 mmHg 47%
    11:00 +11°C° 0.1 mm 8 mps 760 mmHg 48%
    12:00 +12°C° 0.1 mm 9 mps 760 mmHg 49%
    13:00 +12°C° 0.1 mm 9 mps 760 mmHg 50%
    14:00 +12°C° 0.1 mm 9 mps 759 mmHg 53%
    15:00 +11°C° 0.1 mm 9 mps 758 mmHg 56%
    16:00 +11°C° 0.1 mm 9 mps 758 mmHg 59%
    17:00 +10°C° 0.8 mm 9 mps 757 mmHg 66%
    18:00 +8°C° 0.8 mm 10 mps 757 mmHg 72%
    19:00 +8°C° 0.8 mm 10 mps 756 mmHg 79%
    20:00 +8°C° 1.9 mm 9 mps 756 mmHg 80%
    21:00 +7°C° 1.9 mm 8 mps 756 mmHg 80%
    22:00 +8°C° 1.9 mm 7 mps 755 mmHg 81%
    23:00 +8°C° 0.1 mm 6 mps 756 mmHg 80%

    26 September, Wednesday

    Time Temperature Precipitation Wind Pressure Humidity
    00:00 +7°C° 0.1 mm 6 mps 756 mmHg 79%
    01:00 +7°C° 0.1 mm 6 mps 756 mmHg 78%
    02:00 +7°C° 0 mm 6 mps 757 mmHg 78%
    03:00 +5°C° 0 mm 6 mps 757 mmHg 78%
    04:00 +6°C° 0 mm 5 mps 758 mmHg 78%
    05:00 +6°C° 0 mm 5 mps 759 mmHg 78%
    06:00 +6°C° 0 mm 5 mps 759 mmHg 77%
    07:00 +7°C° 0 mm 5 mps 760 mmHg 77%
    08:00 +8°C° 0 mm 5 mps 760 mmHg 69%
    09:00 +10°C° 0 mm 5 mps 761 mmHg 61%
    10:00 +13°C° 0 mm 5 mps 761 mmHg 54%
    11:00 +14°C° 0 mm 5 mps 761 mmHg 50%
    12:00 +14°C° 0 mm 5 mps 761 mmHg 47%
    13:00 +15°C° 0 mm 5 mps 761 mmHg 43%
    14:00 +15°C° 0 mm 4 mps 761 mmHg 46%
    15:00 +14°C° 0 mm 4 mps 761 mmHg 48%
    16:00 +14°C° 0 mm 3 mps 761 mmHg 50%
    17:00 +13°C° 0 mm 3 mps 761 mmHg 57%
    18:00 +12°C° 0 mm 3 mps 761 mmHg 64%
    19:00 +11°C° 0 mm 3 mps 761 mmHg 71%
    20:00 +11°C° 0 mm 3 mps 762 mmHg 76%
    21:00 +11°C° 0 mm 3 mps 762 mmHg 80%
    22:00 +11°C° 0 mm 3 mps 762 mmHg 85%
    23:00 +10°C° 0 mm 3 mps 762 mmHg 88%
    Show more